Tracking 22882 objects as of 18-Apr-2021
HD Live streaming from Space Station
objects crossing your sky now

STARLINK-1688

Track STARLINK-1688 now!
10-day predictions
STARLINK-1688 is classified as:


NORAD ID: 46371
Int'l Code: 2020-062AY
Perigee: 553.8 km
Apogee: 554.9 km
Inclination: 53.1 °
Period: 95.6 minutes
Semi major axis: 6925 km
RCS: Unknown
Launch date: September 3, 2020
Source: United States (US)
Launch site: AIR FORCE EASTERN TEST RANGE (AFETR)
aabbcc
Your satellite tracking list
Your tracking list is empty




NASA's NSSDC Master Catalog

Two Line Element Set (TLE):
1 46371U 20062AY  21108.43518375 -.00000904  00000-0 -41798-4 0  9997
2 46371  53.0570  95.4315 0000815  50.9917 309.1145 15.06397546 35361
Source of the keplerian elements: AFSPC